Regional Weather Roundup
Issued by NWS

Home | Current Version | Previous Version | Graphics & Text | Print | Product List | Glossary On
Versions: 1 2 3 4 5 6 7 8 9 10 11 12 13 14 15 16 17 18 19 20 21 22 23 24 25 26 27 28 29 30 31 32 33 34 35 36 37 38 39 40 41 42 43 44 45 46 47 48 49 50
000
ASUS44 KMEG 290700
RWRTN
TENNESSEE HOURLY STATE WEATHER ROUNDUP
NATIONAL WEATHER SERVICE MEMPHIS TN
200 AM CDT TUE JUL 29 2014

TNZ002-004-019-021-049-052-054-088>092-290800-
WEST TENNESSEE

CITY           SKY/WX    TMP DP  RH WIND       PRES   REMARKS
MEMPHIS INTL   MOCLDY    76  61  59 NE12      30.06R
NWS MEMPHIS      N/A     73 N/A N/A MISG        N/A
JACKSON        MOCLDY    67  61  81 N8        30.06F
DYERSBURG      PTCLDY    68  54  60 NE5       30.09S
UNION CITY     CLEAR     63  59  88 NE3       30.07F
PARIS          CLEAR     57  55  94 CALM      30.08F
LEXINGTON      CLEAR     63  61  94 N3        30.05F
SAVANNAH       CLEAR     64  64 100 N3        30.05F
$$

TNZ008-025-027-028-033-062-065-066-290800-
NORTH MIDDLE TENNESSEE

CITY           SKY/WX    TMP DP  RH WIND       PRES   REMARKS
NASHVILLE      CLEAR     67  57  70 N3        30.05S
CLARKSVILLE    CLEAR     61  55  81 N6        30.06F
COOKEVILLE     MOCLDY    61  61 100 CALM      30.03F
CROSSVILLE     PTCLDY    61  58  90 W5        30.05F
$$

TNZ061-075-076-078-094-096-097-290800-
SOUTH MIDDLE TENNESSEE

CITY           SKY/WX    TMP DP  RH WIND       PRES   REMARKS
FAYETTEVILLE   PTCLDY    64  57  77 N9        30.04F
TULLAHOMA      CLEAR     63  57  82 N5        30.05F
WINCHESTER     MOCLDY    64  63  94 CALM      30.04F
MCMINNVILLE    PTCLDY    64  61  88 N5        30.04F
COLUMBIA       CLEAR     64  61  88 CALM      30.04F
SHELBYVILLE    PTCLDY    64  61  88 CALM      30.05F
$$

TNZ017-018-042-046-047-290800-
NORTHEAST TENNESSEE

CITY           SKY/WX    TMP DP  RH WIND       PRES   REMARKS
TRI CITIES     CLEAR     59  55  87 CALM      30.00S
ELIZABETHTON   SUNNY     55  55 100 CALM        N/A  FOG
$$

TNZ012-013-036-069-073-074-290800-
CENTRAL EAST TENNESSEE

CITY           SKY/WX    TMP DP  RH WIND       PRES   REMARKS
KNOXVILLE      CLOUDY    67  59  75 N3        29.99F
OAK RIDGE      MOCLDY    64  60  87 CALM      30.01F
GATLINBURG     PTSUNNY   63  61  94 CALM      30.00S
$$

TNZ083-085-099-290800-
SOUTHEAST TENNESSEE

CITY           SKY/WX    TMP DP  RH WIND       PRES   REMARKS
CHATTANOOGA    CLEAR     69  59  70 CALM      30.00F
$$

SKY/WX REPORTED AS FAIR MEANS FEW OR NO CLOUDS BELOW
12 THOUSAND FEET.



USA.gov is the U.S. government's official web portal to all federal, state and local government web resources and services.